Location: Unspecified
(0.0000°N, 0.0000°E)
Time: 04:18:16
(UTC+00:00)

A-11 Canister half - Pass Details

Date: 17 April 2026
Orbit: 1523 x 1685 km, 47.3° (Epoch: 13 May)

Event Time Altitude Azimuth Distance (km) Brightness Sun altitude
Rises 23:32:58 0° 260° (W) 4,810 - -77.4°
Reaches altitude 10° 23:37:48 10° 281° (W) 3,855 - -78.0°
Maximum altitude 23:43:14 16° 315° (NW) 3,423 - -78.5°
Drops below altitude 10° 23:48:46 10° 349° (N) 3,910 - -78.9°
Sets 23:53:49 0° 10° (N) 4,913 - -79.1°
